Location: Banksville Park
(38.5557°N, 75.1182°W)
Time: 22:53:34
(UTC+00:00)

CZ-4B R/B - Pass Details

Date: 19 September 2020
Orbit: 487 x 652 km, 97.9° (Epoch: 20 October)

Event Time Altitude Azimuth Distance (km) Brightness Sun altitude
Rises 09:44:58 0° 19° (NNE) 2,620 6.7 -12.7°
Reaches altitude 10° 09:47:09 10° 26° (NNE) 1,712 5.9 -12.2°
Maximum altitude 09:50:39 43° 99° (E) 705 3.9 -11.6°
Drops below altitude 10° 09:54:04 10° 172° (S) 1,667 5.3 -10.9°
Sets 09:56:10 0° 179° (S) 2,541 6.1 -10.5°
